,,,PA_Meas_PMT16A,,PR_Meas_QMR101_102,,RH_Meas_QMH101,,SR_Meas_QMS101,,TA_Meas_QMH101,,GenWind,,GenWind,
date,time,status,PA,status,PR,status,RH,status,SR,status,TA,status,DirAvg,status,SpdAvg,
2008-12-10, 00:00:04,VALID,1002.43,VALID,0,VALID,89.4563,VALID,0,VALID,25.5941,VALID,334,VALID,0.411719,
2008-12-10, 00:01:04,VALID,1002.41,VALID,0,VALID,89.296,VALID,0,VALID,25.5921,VALID,336,VALID,0.480859,
2008-12-10, 00:02:04,VALID,1002.4,VALID,0,VALID,89.174,VALID,0,VALID,25.633,VALID,341,VALID,0.373047,
2008-12-10, 00:03:04,VALID,1002.38,VALID,0,VALID,89.1206,VALID,0,VALID,25.6292,VALID,6,VALID,0.578906,
2008-12-10, 00:04:04,VALID,1002.4,VALID,0,VALID,89.0367,VALID,0,VALID,25.6506,VALID,17,VALID,0.502734,
2008-12-10, 00:05:04,VALID,1002.41,VALID,0,VALID,88.9909,VALID,0,VALID,25.6525,VALID,8,VALID,0.796484,
2008-12-10, 00:06:04,VALID,1002.36,VALID,0,VALID,88.9527,VALID,0,VALID,25.6506,VALID,5,VALID,0.485938,
2008-12-10, 00:07:04,VALID,1002.35,VALID,0,VALID,88.762,VALID,0,VALID,25.6895,VALID,25,VALID,1.18867,
2008-12-10, 00:08:04,VALID,1002.34,VALID,0,VALID,88.434,VALID,0,VALID,25.7674,VALID,1,VALID,0.886719,
2008-12-10, 00:09:04,VALID,1002.32,VALID,0,VALID,88.0754,VALID,0,VALID,25.8473,VALID,359,VALID,0.889844,
2008-12-10, 00:10:04,VALID,1002.29,VALID,0,VALID,87.694,VALID,0,VALID,25.9252,VALID,350,VALID,0.9,
2008-12-10, 00:11:04,VALID,1002.3,VALID,0,VALID,87.3354,VALID,0,VALID,25.9817,VALID,25,VALID,1.51758,
2008-12-10, 00:12:04,VALID,1002.3,VALID,0,VALID,87.1066,VALID,0,VALID,26.0616,VALID,343,VALID,0.832812,
2008-12-10, 00:13:04,VALID,1002.29,VALID,0,VALID,86.748,VALID,0,VALID,26.0791,VALID,11,VALID,0.707422,
2008-12-10, 00:14:04,VALID,1002.29,VALID,0,VALID,86.2903,VALID,0,VALID,26.1375,VALID,32,VALID,1.49297,
2008-12-10, 00:15:04,VALID,1002.29,VALID,0,VALID,86.1224,VALID,0,VALID,26.2174,VALID,20,VALID,0.255078,
2008-12-10, 00:16:04,VALID,1002.31,VALID,0,VALID,85.9699,VALID,0,VALID,26.2369,VALID,356,VALID,0.480859,
2008-12-10, 00:17:04,VALID,1002.33,VALID,0,VALID,85.8173,VALID,0,VALID,26.2154,VALID,325,VALID,0.562109,
2008-12-10, 00:18:04,VALID,1002.31,VALID,0,VALID,85.6494,VALID,0,VALID,26.2349,VALID,10,VALID,1,
2008-12-10, 00:19:04,VALID,1002.35,VALID,0,VALID,85.6342,VALID,0,VALID,26.2739,VALID,3,VALID,0.341406,
2008-12-10, 00:20:04,VALID,1002.33,VALID,0,VALID,85.6494,VALID,0,VALID,26.2739,VALID,350,VALID,0.68125,
2008-12-10, 00:21:04,VALID,1002.33,VALID,0,VALID,85.741,VALID,0,VALID,26.2349,VALID,341,VALID,0.405859,
2008-12-10, 00:22:04,VALID,1002.33,VALID,0,VALID,85.8631,VALID,0,VALID,26.2154,VALID,341,VALID,0.411719,
2008-12-10, 00:23:04,VALID,1002.32,VALID,0,VALID,85.9393,VALID,0,VALID,26.2174,VALID,341,VALID,0.519141,
2008-12-10, 00:24:04,VALID,1002.32,VALID,0,VALID,86.0538,VALID,0,VALID,26.1765,VALID,342,VALID,0.282031,
2008-12-10, 00:25:04,VALID,1002.32,VALID,0,VALID,86.1682,VALID,0,VALID,26.1375,VALID,342,VALID,0.406641,
2008-12-10, 00:26:04,VALID,1002.3,VALID,0,VALID,86.3513,VALID,0.100563,VALID,26.0966,VALID,328,VALID,0.299219,
2008-12-10, 00:27:04,VALID,1002.29,VALID,0,VALID,86.4657,VALID,0.100563,VALID,26.0576,VALID,329,VALID,0.367969,
2008-12-10, 00:28:04,VALID,1002.3,VALID,0,VALID,86.6259,VALID,0,VALID,26.0401,VALID,329,VALID,0.433594,
2008-12-10, 00:29:04,VALID,1002.3,VALID,0,VALID,86.8243,VALID,0,VALID,25.9602,VALID,336,VALID,0.595703,
2008-12-10, 00:30:04,VALID,1002.26,VALID,0,VALID,86.9998,VALID,0,VALID,25.9213,VALID,336,VALID,0.571094,
2008-12-10, 00:31:04,VALID,1002.27,VALID,0,VALID,87.1981,VALID,0.100563,VALID,25.8823,VALID,339,VALID,0.451562,
2008-12-10, 00:32:04,VALID,1002.27,VALID,0,VALID,87.343,VALID,0.100563,VALID,25.8239,VALID,355,VALID,0.169531,
2008-12-10, 00:33:04,VALID,1002.24,VALID,0,VALID,87.5261,VALID,0,VALID,25.8044,VALID,355,VALID,0.354297,
2008-12-10, 00:34:04,VALID,1002.23,VALID,0,VALID,87.7398,VALID,0.100563,VALID,25.7869,VALID,355,VALID,0.306641,
2008-12-10, 00:35:04,VALID,1002.22,VALID,0,VALID,87.9839,VALID,0,VALID,25.7285,VALID,355,VALID,0.332422,
2008-12-10, 00:36:04,VALID,1002.19,VALID,0,VALID,88.2127,VALID,0.100563,VALID,25.6486,VALID,355,VALID,0.367578,
2008-12-10, 00:37:04,VALID,1002.17,VALID,0,VALID,88.4187,VALID,0.100563,VALID,25.5902,VALID,355,VALID,0.465625,
2008-12-10, 00:38:04,VALID,1002.21,VALID,0,VALID,88.7468,VALID,0.100563,VALID,25.5142,VALID,355,VALID,0.484766,
2008-12-10, 00:39:04,VALID,1002.2,VALID,0,VALID,89.1358,VALID,0,VALID,25.4169,VALID,355,VALID,0.407422,
2008-12-10, 00:40:04,VALID,1002.18,VALID,0,VALID,89.5478,VALID,0,VALID,25.2981,VALID,355,VALID,0.485547,
2008-12-10, 00:41:04,VALID,1002.2,VALID,0,VALID,89.9369,VALID,0,VALID,25.2416,VALID,355,VALID,0.45625,
2008-12-10, 00:42:04,VALID,1002.17,VALID,0,VALID,90.3488,VALID,0.100563,VALID,25.1618,VALID,355,VALID,0.476172,
2008-12-10, 00:43:04,VALID,1002.15,VALID,0,VALID,90.4938,VALID,0.100563,VALID,25.1053,VALID,355,VALID,0.389062,
2008-12-10, 00:44:04,VALID,1002.16,VALID,0,VALID,90.9363,VALID,0.100563,VALID,25.006,VALID,355,VALID,0.308203,
2008-12-10, 00:45:04,VALID,1002.11,VALID,0,VALID,91.2033,VALID,0,VALID,24.9866,VALID,355,VALID,0.181641,
2008-12-10, 00:46:04,VALID,1002.11,VALID,0,VALID,91.3711,VALID,0.100563,VALID,24.969,VALID,355,VALID,0.340234,
2008-12-10, 00:47:04,VALID,1002.07,VALID,0,VALID,91.5237,VALID,0,VALID,24.969,VALID,355,VALID,0.271875,
2008-12-10, 00:48:04,VALID,1002.04,VALID,0,VALID,91.6076,VALID,0.100563,VALID,24.9476,VALID,355,VALID,0.318359,
2008-12-10, 00:49:04,VALID,1002.04,VALID,0,VALID,91.6152,VALID,0,VALID,24.969,VALID,355,VALID,0.395312,
2008-12-10, 00:50:04,VALID,1002,VALID,0,VALID,91.4779,VALID,0.100563,VALID,24.969,VALID,355,VALID,0.356641,
2008-12-10, 00:51:04,VALID,1001.99,VALID,0,VALID,91.4321,VALID,0,VALID,24.9885,VALID,355,VALID,0.239453,
2008-12-10, 00:52:04,VALID,1001.98,VALID,0,VALID,91.394,VALID,0,VALID,24.969,VALID,355,VALID,0,
2008-12-10, 00:53:04,VALID,1001.98,VALID,0,VALID,91.3635,VALID,0,VALID,24.9885,VALID,355,VALID,0.425391,
2008-12-10, 00:54:04,VALID,1001.95,VALID,0,VALID,91.3024,VALID,0,VALID,24.9885,VALID,355,VALID,0.307031,
2008-12-10, 00:55:04,VALID,1001.95,VALID,0,VALID,91.249,VALID,0,VALID,24.9885,VALID,355,VALID,0.373828,
2008-12-10, 00:56:04,VALID,1001.97,VALID,0,VALID,91.2033,VALID,0,VALID,24.93,VALID,355,VALID,0.585938,
2008-12-10, 00:57:04,VALID,1001.98,VALID,0,VALID,91.4474,VALID,0,VALID,24.8911,VALID,355,VALID,0.591016,
2008-12-10, 00:58:04,VALID,1001.95,VALID,0,VALID,91.6686,VALID,0.100563,VALID,24.8308,VALID,355,VALID,0.48125,
2008-12-10, 00:59:04,VALID,1001.96,VALID,0,VALID,91.9433,VALID,0.100563,VALID,24.8327,VALID,355,VALID,0.438672,
2008-12-10, 01:00:04,VALID,1001.95,VALID,0,VALID,91.9433,VALID,0.100563,VALID,24.7724,VALID,355,VALID,0.524609,
2008-12-10, 01:01:04,VALID,1001.93,VALID,0,VALID,92.1798,VALID,0,VALID,24.7937,VALID,355,VALID,0.417188,
2008-12-10, 01:02:04,VALID,1001.93,VALID,0,VALID,92.0882,VALID,0,VALID,24.7743,VALID,355,VALID,0.548437,
2008-12-10, 01:03:04,VALID,1001.88,VALID,0,VALID,92.0348,VALID,0.100563,VALID,24.714,VALID,355,VALID,0.449609,
2008-12-10, 01:04:04,VALID,1001.89,VALID,0,VALID,92.1874,VALID,0.100563,VALID,24.675,VALID,355,VALID,0.414453,
2008-12-10, 01:05:04,VALID,1001.86,VALID,0,VALID,92.2484,VALID,0,VALID,24.6361,VALID,355,VALID,0.374609,
2008-12-10, 01:06:04,VALID,1001.84,VALID,0,VALID,92.3018,VALID,0,VALID,24.638,VALID,355,VALID,0.366406,
2008-12-10, 01:07:04,VALID,1001.82,VALID,0,VALID,92.4239,VALID,0.100563,VALID,24.5388,VALID,355,VALID,0.449219,
2008-12-10, 01:08:04,VALID,1001.82,VALID,0,VALID,92.5536,VALID,0.100563,VALID,24.4998,VALID,355,VALID,0.501562,
2008-12-10, 01:09:04,VALID,1001.8,VALID,0,VALID,92.7062,VALID,0.100563,VALID,24.5017,VALID,355,VALID,0.444531,
2008-12-10, 01:10:04,VALID,1001.79,VALID,0,VALID,92.874,VALID,0.100563,VALID,24.4822,VALID,355,VALID,0.565625,
2008-12-10, 01:11:04,VALID,1001.77,VALID,0,VALID,93.1181,VALID,0,VALID,24.4822,VALID,355,VALID,0.493359,
2008-12-10, 01:12:04,VALID,1001.77,VALID,0,VALID,93.1257,VALID,0.100563,VALID,24.4628,VALID,355,VALID,0.414063,
2008-12-10, 01:13:04,VALID,1001.74,VALID,0,VALID,93.202,VALID,0,VALID,24.4433,VALID,355,VALID,0.464063,
2008-12-10, 01:14:04,VALID,1001.72,VALID,0,VALID,93.2325,VALID,0,VALID,24.4238,VALID,355,VALID,0.525,
2008-12-10, 01:15:04,VALID,1001.69,VALID,0,VALID,93.3928,VALID,0.100563,VALID,24.422,VALID,355,VALID,0.377734,
2008-12-10, 01:16:04,VALID,1001.68,VALID,0,VALID,93.3928,VALID,0,VALID,24.4238,VALID,355,VALID,0.412891,
2008-12-10, 01:17:04,VALID,1001.68,VALID,0,VALID,93.4233,VALID,0,VALID,24.4238,VALID,355,VALID,0.396484,
2008-12-10, 01:18:04,VALID,1001.65,VALID,0,VALID,93.4385,VALID,0.100563,VALID,24.4043,VALID,355,VALID,0.368359,
2008-12-10, 01:19:04,VALID,1001.63,VALID,0,VALID,93.469,VALID,0.100563,VALID,24.3636,VALID,355,VALID,0.440234,
2008-12-10, 01:20:04,VALID,1001.67,VALID,0,VALID,93.4996,VALID,0,VALID,24.3849,VALID,355,VALID,0.517187,
2008-12-10, 01:21:04,VALID,1001.67,VALID,0,VALID,93.5072,VALID,0,VALID,24.3849,VALID,355,VALID,0.528906,
2008-12-10, 01:22:04,VALID,1001.65,VALID,0,VALID,93.553,VALID,0,VALID,24.3654,VALID,355,VALID,0.578516,
2008-12-10, 01:23:04,VALID,1001.72,VALID,0,VALID,93.5758,VALID,0,VALID,24.3246,VALID,355,VALID,0.717578,
2008-12-10, 01:24:04,VALID,1001.71,VALID,0,VALID,93.5911,VALID,0,VALID,24.3265,VALID,355,VALID,0.637891,
2008-12-10, 01:25:04,VALID,1001.67,VALID,0,VALID,93.6216,VALID,0,VALID,24.2857,VALID,355,VALID,0.7125,
2008-12-10, 01:26:04,VALID,1001.64,VALID,0,VALID,93.6369,VALID,0.100563,VALID,24.2662,VALID,355,VALID,0.616016,
2008-12-10, 01:27:04,VALID,1001.6,VALID,0,VALID,93.6903,VALID,0.100563,VALID,24.2255,VALID,355,VALID,0.630078,
2008-12-10, 01:28:04,VALID,1001.59,VALID,0,VALID,93.7208,VALID,0,VALID,24.2078,VALID,355,VALID,0.40625,
2008-12-10, 01:29:04,VALID,1001.56,VALID,0,VALID,93.7132,VALID,0,VALID,24.1884,VALID,355,VALID,0.482031,
2008-12-10, 01:30:04,VALID,1001.52,VALID,0,VALID,93.8047,VALID,0,VALID,24.1884,VALID,355,VALID,0.444531,
2008-12-10, 01:31:04,VALID,1001.55,VALID,0,VALID,93.8657,VALID,0,VALID,24.2097,VALID,355,VALID,0.455859,
2008-12-10, 01:32:04,VALID,1001.52,VALID,0,VALID,93.8581,VALID,0.100563,VALID,24.1689,VALID,355,VALID,0.588672,
2008-12-10, 01:33:04,VALID,1001.53,VALID,0,VALID,93.9725,VALID,0,VALID,24.1902,VALID,355,VALID,0.464453,
2008-12-10, 01:34:04,VALID,1001.51,VALID,0,VALID,93.9954,VALID,0,VALID,24.1689,VALID,355,VALID,0.360156,
2008-12-10, 01:35:04,VALID,1001.51,VALID,0,VALID,94.0641,VALID,0,VALID,24.2097,VALID,355,VALID,0.269141,
2008-12-10, 01:36:04,VALID,1001.51,VALID,0,VALID,94.0946,VALID,0,VALID,24.2097,VALID,355,VALID,0.265625,
2008-12-10, 01:37:04,VALID,1001.48,VALID,0,VALID,94.0946,VALID,0,VALID,24.2078,VALID,355,VALID,0.280469,
2008-12-10, 01:38:04,VALID,1001.49,VALID,0,VALID,94.0641,VALID,0,VALID,24.2291,VALID,355,VALID,0.225391,
2008-12-10, 01:39:04,VALID,1001.47,VALID,0,VALID,94.0488,VALID,0,VALID,24.2291,VALID,355,VALID,0,
2008-12-10, 01:40:04,VALID,1001.47,VALID,0,VALID,93.9802,VALID,0,VALID,24.2486,VALID,355,VALID,0,
2008-12-10, 01:41:04,VALID,1001.47,VALID,0,VALID,93.9344,VALID,0,VALID,24.2078,VALID,355,VALID,0.144141,
2008-12-10, 01:42:04,VALID,1001.47,VALID,0,VALID,93.8734,VALID,0,VALID,24.2291,VALID,355,VALID,0.251953,
2008-12-10, 01:43:04,VALID,1001.46,VALID,0,VALID,93.8276,VALID,0,VALID,24.2078,VALID,355,VALID,0.265625,
2008-12-10, 01:44:04,VALID,1001.44,VALID,0,VALID,93.8276,VALID,0.100563,VALID,24.1902,VALID,355,VALID,0.282813,
2008-12-10, 01:45:04,VALID,1001.45,VALID,0,VALID,93.8734,VALID,0,VALID,24.2097,VALID,355,VALID,0.505078,
2008-12-10, 01:46:04,VALID,1001.44,VALID,0,VALID,93.9649,VALID,0,VALID,24.1902,VALID,355,VALID,0.622656,
2008-12-10, 01:47:04,VALID,1001.43,VALID,0,VALID,93.9039,VALID,0,VALID,24.1902,VALID,355,VALID,0.519141,
2008-12-10, 01:48:04,VALID,1001.4,VALID,0,VALID,93.9191,VALID,0.100563,VALID,24.1689,VALID,355,VALID,0.416797,
2008-12-10, 01:49:04,VALID,1001.44,VALID,0,VALID,94.0183,VALID,0.100563,VALID,24.1902,VALID,355,VALID,0.381641,
2008-12-10, 01:50:04,VALID,1001.41,VALID,0,VALID,93.9649,VALID,0,VALID,24.2097,VALID,355,VALID,0.370703,
2008-12-10, 01:51:04,VALID,1001.44,VALID,0,VALID,93.9344,VALID,0,VALID,24.2097,VALID,355,VALID,0.0773437,
2008-12-10, 01:52:04,VALID,1001.43,VALID,0,VALID,93.9268,VALID,0,VALID,24.2097,VALID,355,VALID,0.309375,
2008-12-10, 01:53:04,VALID,1001.42,VALID,0,VALID,93.7971,VALID,0,VALID,24.2097,VALID,355,VALID,0,
2008-12-10, 01:54:04,VALID,1001.39,VALID,0,VALID,93.7361,VALID,0,VALID,24.1689,VALID,355,VALID,0,
2008-12-10, 01:55:04,VALID,1001.43,VALID,0,VALID,93.5987,VALID,0,VALID,24.1902,VALID,355,VALID,0,
2008-12-10, 01:56:04,VALID,1001.37,VALID,0,VALID,93.5835,VALID,0.100563,VALID,24.13,VALID,355,VALID,0,
2008-12-10, 01:57:04,VALID,1001.36,VALID,0,VALID,93.7055,VALID,0.100563,VALID,24.1513,VALID,354,VALID,0,
2008-12-10, 01:58:04,VALID,1001.38,VALID,0,VALID,93.6521,VALID,0,VALID,24.1105,VALID,354,VALID,0.439844,
2008-12-10, 01:59:04,VALID,1001.35,VALID,0,VALID,93.614,VALID,0,VALID,24.091,VALID,354,VALID,0.413672,
2008-12-10, 02:00:04,VALID,1001.33,VALID,0,VALID,93.7589,VALID,0,VALID,24.0521,VALID,354,VALID,0.398828,
2008-12-10, 02:01:04,VALID,1001.29,VALID,0,VALID,93.7513,VALID,0.100563,VALID,24.0521,VALID,354,VALID,0.346484,
2008-12-10, 02:02:04,VALID,1001.28,VALID,0,VALID,93.8047,VALID,0.100563,VALID,24.0521,VALID,354,VALID,0.323047,
2008-12-10, 02:03:04,VALID,1001.27,VALID,0,VALID,93.9115,VALID,0.100563,VALID,24.0326,VALID,354,VALID,0.484375,
2008-12-10, 02:04:04,VALID,1001.25,VALID,0,VALID,93.8352,VALID,0.100563,VALID,23.9937,VALID,354,VALID,0.463281,
2008-12-10, 02:05:04,VALID,1001.24,VALID,0,VALID,93.9115,VALID,0.100563,VALID,23.9937,VALID,354,VALID,0.421875,
2008-12-10, 02:06:04,VALID,1001.24,VALID,0,VALID,93.9802,VALID,0.100563,VALID,23.9742,VALID,355,VALID,0.554688,
2008-12-10, 02:07:04,VALID,1001.24,VALID,0,VALID,94.0107,VALID,0,VALID,23.9548,VALID,355,VALID,0.395312,
2008-12-10, 02:08:04,VALID,1001.22,VALID,0,VALID,94.0488,VALID,0.100563,VALID,23.9353,VALID,355,VALID,0.511719,
2008-12-10, 02:09:04,VALID,1001.21,VALID,0,VALID,94.1099,VALID,0.100563,VALID,23.9159,VALID,355,VALID,0.465234,
2008-12-10, 02:10:04,VALID,1001.21,VALID,0,VALID,94.2548,VALID,0,VALID,23.8964,VALID,355,VALID,0.470313,
2008-12-10, 02:11:04,VALID,1001.21,VALID,0,VALID,94.2624,VALID,0,VALID,23.9177,VALID,355,VALID,0.375781,
2008-12-10, 02:12:04,VALID,1001.21,VALID,0,VALID,94.2472,VALID,0.100563,VALID,23.9159,VALID,355,VALID,0.378516,
2008-12-10, 02:13:04,VALID,1001.19,VALID,0,VALID,94.2777,VALID,0.100563,VALID,23.9177,VALID,355,VALID,0.399609,
2008-12-10, 02:14:04,VALID,1001.19,VALID,0,VALID,94.3311,VALID,0.100563,VALID,23.9159,VALID,355,VALID,0.448438,
2008-12-10, 02:15:04,VALID,1001.18,VALID,0,VALID,94.4074,VALID,0,VALID,23.9353,VALID,355,VALID,0.385156,
2008-12-10, 02:16:04,VALID,1001.19,VALID,0,VALID,94.3387,VALID,0.100563,VALID,23.9353,VALID,355,VALID,0.453906,
2008-12-10, 02:17:04,VALID,1001.18,VALID,0,VALID,94.3006,VALID,0.100563,VALID,23.9371,VALID,355,VALID,0.486719,
2008-12-10, 02:18:04,VALID,1001.19,VALID,0,VALID,94.2624,VALID,0,VALID,23.9159,VALID,355,VALID,0.36875,
2008-12-10, 02:19:04,VALID,1001.18,VALID,0,VALID,94.1938,VALID,0.100563,VALID,23.8769,VALID,355,VALID,0.427344,
2008-12-10, 02:20:04,VALID,1001.2,VALID,0,VALID,94.1099,VALID,0.100563,VALID,23.8575,VALID,355,VALID,0.375,
2008-12-10, 02:21:04,VALID,1001.19,VALID,0,VALID,94.1404,VALID,0,VALID,23.8398,VALID,355,VALID,0.529688,
2008-12-10, 02:22:04,VALID,1001.2,VALID,0,VALID,94.1862,VALID,0,VALID,23.7991,VALID,355,VALID,0.518359,
2008-12-10, 02:23:04,VALID,1001.17,VALID,0,VALID,94.2396,VALID,0,VALID,23.8203,VALID,355,VALID,0.327734,
2008-12-10, 02:24:04,VALID,1001.16,VALID,0,VALID,94.3235,VALID,0,VALID,23.8203,VALID,355,VALID,0,
2008-12-10, 02:25:04,VALID,1001.14,VALID,0,VALID,94.4303,VALID,0,VALID,23.7991,VALID,355,VALID,0,
2008-12-10, 02:26:04,VALID,1001.11,VALID,0,VALID,94.4455,VALID,0,VALID,23.8185,VALID,355,VALID,0,
2008-12-10, 02:27:04,VALID,1001.09,VALID,0,VALID,94.4455,VALID,0,VALID,23.7991,VALID,355,VALID,0,
2008-12-10, 02:28:04,VALID,1001.11,VALID,0,VALID,94.5371,VALID,0.100563,VALID,23.8593,VALID,355,VALID,0,
2008-12-10, 02:29:04,VALID,1001.09,VALID,0,VALID,94.4303,VALID,0,VALID,23.7991,VALID,355,VALID,0,
2008-12-10, 02:30:04,VALID,1001.08,VALID,0,VALID,94.4837,VALID,0.100563,VALID,23.7991,VALID,355,VALID,0,
2008-12-10, 02:31:04,VALID,1001.08,VALID,0,VALID,94.415,VALID,0,VALID,23.8203,VALID,355,VALID,0,
2008-12-10, 02:32:04,VALID,1001.07,VALID,0,VALID,94.4074,VALID,0.100563,VALID,23.7796,VALID,355,VALID,0,
2008-12-10, 02:33:04,VALID,1001.04,VALID,0,VALID,94.3464,VALID,0.100563,VALID,23.7583,VALID,355,VALID,0,
2008-12-10, 02:34:04,VALID,1001.04,VALID,0,VALID,94.3387,VALID,0.100563,VALID,23.7601,VALID,355,VALID,0,
2008-12-10, 02:35:04,VALID,1001.02,VALID,0,VALID,94.415,VALID,0,VALID,23.7407,VALID,355,VALID,0.613281,
2008-12-10, 02:36:04,VALID,1001,VALID,0,VALID,94.4074,VALID,0,VALID,23.7407,VALID,355,VALID,0.445313,
2008-12-10, 02:37:04,VALID,1001.03,VALID,0,VALID,94.4227,VALID,0,VALID,23.7619,VALID,355,VALID,0.587109,
2008-12-10, 02:38:04,VALID,1001.03,VALID,0,VALID,94.4227,VALID,0,VALID,23.723,VALID,355,VALID,0.339844,
2008-12-10, 02:39:04,VALID,1001.01,VALID,0,VALID,94.4684,VALID,0,VALID,23.7017,VALID,355,VALID,0.612109,
2008-12-10, 02:40:04,VALID,1001.02,VALID,0,VALID,94.5371,VALID,0,VALID,23.723,VALID,355,VALID,0.7,
2008-12-10, 02:41:04,VALID,1001.02,VALID,0,VALID,94.5523,VALID,0,VALID,23.7637,VALID,355,VALID,0.502734,
2008-12-10, 02:42:04,VALID,1000.98,VALID,0,VALID,94.5447,VALID,0,VALID,23.723,VALID,355,VALID,0.594141,
2008-12-10, 02:43:04,VALID,1001.01,VALID,0,VALID,94.5218,VALID,0,VALID,23.7248,VALID,355,VALID,0.516797,
2008-12-10, 02:44:04,VALID,1001.02,VALID,0,VALID,94.56,VALID,0,VALID,23.7035,VALID,355,VALID,0.44375,
2008-12-10, 02:45:04,VALID,1001.02,VALID,0,VALID,94.4913,VALID,0,VALID,23.6841,VALID,355,VALID,0.494922,
2008-12-10, 02:46:04,VALID,1001.01,VALID,0,VALID,94.56,VALID,0,VALID,23.6841,VALID,355,VALID,0.569531,
2008-12-10, 02:47:04,VALID,1001.05,VALID,0,VALID,94.5371,VALID,0,VALID,23.6452,VALID,355,VALID,0.433984,
2008-12-10, 02:48:04,VALID,1001,VALID,0,VALID,94.5676,VALID,0,VALID,23.6646,VALID,355,VALID,0.341797,
2008-12-10, 02:49:04,VALID,1001.03,VALID,0,VALID,94.5981,VALID,0,VALID,23.6452,VALID,355,VALID,0.356641,
2008-12-10, 02:50:04,VALID,1000.99,VALID,0,VALID,94.6286,VALID,0,VALID,23.6239,VALID,355,VALID,0.357031,
2008-12-10, 02:51:04,VALID,1001,VALID,0,VALID,94.6134,VALID,0,VALID,23.6664,VALID,355,VALID,0.389844,
2008-12-10, 02:52:04,VALID,1001,VALID,0,VALID,94.6363,VALID,0,VALID,23.6452,VALID,355,VALID,0.395703,
2008-12-10, 02:53:04,VALID,1001.01,VALID,0,VALID,94.7278,VALID,0,VALID,23.6664,VALID,355,VALID,0.255078,
2008-12-10, 02:54:04,VALID,1001.01,VALID,0,VALID,94.6973,VALID,0,VALID,23.6841,VALID,355,VALID,0.219141,
2008-12-10, 02:55:04,VALID,1000.98,VALID,0,VALID,94.6134,VALID,0,VALID,23.6664,VALID,355,VALID,0.257422,
2008-12-10, 02:56:05,VALID,1000.99,VALID,0,VALID,94.6057,VALID,0,VALID,23.6452,VALID,355,VALID,0.245312,
2008-12-10, 02:57:05,VALID,1000.99,VALID,0,VALID,94.6286,VALID,0,VALID,23.6859,VALID,355,VALID,0.497656,
2008-12-10, 02:58:05,VALID,1000.98,VALID,0,VALID,94.6439,VALID,0,VALID,23.6841,VALID,2,VALID,0.507422,
2008-12-10, 02:59:05,VALID,1001,VALID,0,VALID,94.6973,VALID,0,VALID,23.6841,VALID,2,VALID,0.395312,
2008-12-10, 03:00:05,VALID,1000.97,VALID,0,VALID,94.5218,VALID,0,VALID,23.6646,VALID,2,VALID,0.630859,
2008-12-10, 03:01:05,VALID,1001,VALID,0,VALID,94.5676,VALID,0,VALID,23.6452,VALID,2,VALID,0.585547,
2008-12-10, 03:02:05,VALID,1000.98,VALID,0,VALID,94.4837,VALID,0,VALID,23.6452,VALID,2,VALID,0.424219,
2008-12-10, 03:03:05,VALID,1000.98,VALID,0,VALID,94.4379,VALID,0,VALID,23.6469,VALID,2,VALID,0.458594,
2008-12-10, 03:04:05,VALID,1001.01,VALID,0,VALID,94.415,VALID,0,VALID,23.608,VALID,2,VALID,0.503516,
2008-12-10, 03:05:05,VALID,1001,VALID,0,VALID,94.3921,VALID,0,VALID,23.5868,VALID,2,VALID,0.399609,
2008-12-10, 03:06:05,VALID,1000.99,VALID,0,VALID,94.4455,VALID,0,VALID,23.5868,VALID,2,VALID,0.448828,
2008-12-10, 03:07:05,VALID,1001.01,VALID,0,VALID,94.4532,VALID,0,VALID,23.608,VALID,2,VALID,0.38125,
2008-12-10, 03:08:05,VALID,1001.02,VALID,0,VALID,94.4761,VALID,0,VALID,23.5655,VALID,2,VALID,0.2375,
2008-12-10, 03:09:05,VALID,1000.99,VALID,0,VALID,94.4913,VALID,0,VALID,23.6062,VALID,2,VALID,0,
2008-12-10, 03:10:05,VALID,1000.99,VALID,0,VALID,94.4761,VALID,0,VALID,23.5655,VALID,2,VALID,0,
2008-12-10, 03:11:05,VALID,1001.01,VALID,0,VALID,94.4303,VALID,0,VALID,23.608,VALID,2,VALID,0,
2008-12-10, 03:12:05,VALID,1001.03,VALID,0,VALID,94.5981,VALID,0,VALID,23.6062,VALID,2,VALID,0,
2008-12-10, 03:13:05,VALID,1001.03,VALID,0,VALID,94.4837,VALID,0,VALID,23.6275,VALID,2,VALID,0,
2008-12-10, 03:14:05,VALID,1001.05,VALID,0,VALID,94.5066,VALID,0,VALID,23.6062,VALID,2,VALID,0,
2008-12-10, 03:15:05,VALID,1001.06,VALID,0,VALID,94.4074,VALID,0,VALID,23.6062,VALID,2,VALID,0,
2008-12-10, 03:16:05,VALID,1001.07,VALID,0,VALID,94.4074,VALID,0,VALID,23.6062,VALID,2,VALID,0,
2008-12-10, 03:17:05,VALID,1001.11,VALID,0,VALID,94.3921,VALID,0,VALID,23.6062,VALID,2,VALID,0,
2008-12-10, 03:18:05,VALID,1001.09,VALID,0,VALID,94.4379,VALID,0,VALID,23.6062,VALID,2,VALID,0,
2008-12-10, 03:19:05,VALID,1001.11,VALID,0,VALID,94.4379,VALID,0,VALID,23.5868,VALID,2,VALID,0,
2008-12-10, 03:20:05,VALID,1001.1,VALID,0,VALID,94.4379,VALID,0,VALID,23.5868,VALID,2,VALID,0,
2008-12-10, 03:21:05,VALID,1001.13,VALID,0,VALID,94.4532,VALID,0,VALID,23.6469,VALID,2,VALID,0,
2008-12-10, 03:22:05,VALID,1001.14,VALID,0,VALID,94.4455,VALID,0,VALID,23.585,VALID,2,VALID,0,
2008-12-10, 03:23:05,VALID,1001.16,VALID,0,VALID,94.4074,VALID,0,VALID,23.6062,VALID,2,VALID,0,
2008-12-10, 03:24:05,VALID,1001.18,VALID,0,VALID,94.3387,VALID,0,VALID,23.608,VALID,2,VALID,0,
2008-12-10, 03:25:05,VALID,1001.2,VALID,0,VALID,94.3235,VALID,0.100563,VALID,23.585,VALID,2,VALID,0,
2008-12-10, 03:26:05,VALID,1001.19,VALID,0,VALID,94.3158,VALID,0,VALID,23.5655,VALID,2,VALID,0.439453,
2008-12-10, 03:27:05,VALID,1001.19,VALID,0,VALID,94.293,VALID,0,VALID,23.5655,VALID,2,VALID,0.366797,
2008-12-10, 03:28:05,VALID,1001.19,VALID,0,VALID,94.3158,VALID,0.100563,VALID,23.5673,VALID,2,VALID,0.389844,
2008-12-10, 03:29:05,VALID,1001.18,VALID,0,VALID,94.3387,VALID,0.100563,VALID,23.546,VALID,2,VALID,0.382031,
2008-12-10, 03:30:05,VALID,1001.18,VALID,0,VALID,94.4379,VALID,0.100563,VALID,23.5443,VALID,2,VALID,0.315234,
2008-12-10, 03:31:05,VALID,1001.16,VALID,0,VALID,94.4455,VALID,0,VALID,23.585,VALID,2,VALID,0.383984,
2008-12-10, 03:32:05,VALID,1001.15,VALID,0,VALID,94.3616,VALID,0,VALID,23.5655,VALID,2,VALID,0.385156,
2008-12-10, 03:33:05,VALID,1001.11,VALID,0,VALID,94.3235,VALID,0,VALID,23.546,VALID,2,VALID,0.383594,
2008-12-10, 03:34:05,VALID,1001.13,VALID,0,VALID,94.354,VALID,0,VALID,23.5673,VALID,2,VALID,0.382813,
2008-12-10, 03:35:05,VALID,1001.11,VALID,0,VALID,94.3769,VALID,0,VALID,23.5673,VALID,2,VALID,0.423047,
2008-12-10, 03:36:05,VALID,1001.09,VALID,0,VALID,94.3158,VALID,0.100563,VALID,23.546,VALID,2,VALID,0.525391,
2008-12-10, 03:37:05,VALID,1001.09,VALID,0,VALID,94.2853,VALID,0.100563,VALID,23.5266,VALID,2,VALID,0.506641,
2008-12-10, 03:38:05,VALID,1001.05,VALID,0,VALID,94.3845,VALID,0.100563,VALID,23.546,VALID,2,VALID,0.524219,
2008-12-10, 03:39:05,VALID,1001.06,VALID,0,VALID,94.3692,VALID,0.100563,VALID,23.5673,VALID,2,VALID,0.472266,
2008-12-10, 03:40:05,VALID,1001.03,VALID,0,VALID,94.4684,VALID,0,VALID,23.5673,VALID,2,VALID,0.336328,
2008-12-10, 03:41:05,VALID,1000.99,VALID,0,VALID,94.4303,VALID,0,VALID,23.5868,VALID,2,VALID,0.356641,
2008-12-10, 03:42:05,VALID,1001.01,VALID,0,VALID,94.4761,VALID,0,VALID,23.6275,VALID,2,VALID,0.388672,
2008-12-10, 03:43:05,VALID,1000.99,VALID,0,VALID,94.3235,VALID,0,VALID,23.5868,VALID,2,VALID,0.494141,
2008-12-10, 03:44:05,VALID,1000.98,VALID,0,VALID,94.2167,VALID,0,VALID,23.5673,VALID,2,VALID,0.634375,